Simultaneous Nadir Overpasses (SNOs) Predictions

Prediction of SNOs between GOES-15 and METOP-C Satellite Orbit:

Table of predicted SNOs for the next 14.0 days since TLE Epoch: 6/26/2022
Index Date Time (GOES-15) GOES-15 Lat,Lon METOP-C Lat,Lon Distance(km) Time Diff (sec)
1 06/27/2022 18:02:02 -0.20,-128.50 -0.29,-128.15 39.58 80
2 06/29/2022 06:23:41 0.17,-128.46 -0.81,-132.74 487.76 80
3 06/30/2022 06:00:22 0.20,-128.46 0.36,-127.76 80.46 80
4 07/01/2022 18:21:54 -0.17,-128.50 0.68,-132.32 435.23 80
5 07/02/2022 17:58:34 -0.20,-128.50 -0.43,-127.32 133.03 80
6 07/04/2022 06:20:15 0.17,-128.46 -0.59,-131.92 394.52 80
7 07/05/2022 05:56:55 0.20,-128.45 0.52,-126.93 173.33 80
8 07/06/2022 18:18:26 -0.16,-128.48 0.53,-131.49 343.16 80
9 07/07/2022 17:55:08 -0.19,-128.47 -0.64,-126.51 224.64 80
10 07/09/2022 06:16:47 0.15,-128.43 -0.41,-131.10 303.36 80
